Regional Weather Roundup
Issued by NWS New Orleans/Baton Rouge, LA

Home | Current Version | Previous Version | Text Only | Print | Product List | Glossary Off
Versions: 1 2 3 4 5 6 7 8 9 10 11 12 13 14 15 16 17 18 19 20 21 22 23 24 25 26 27 28 29 30 31 32 33 34 35 36 37 38 39 40 41 42 43 44 45 46 47 48 49 50

667
ASUS44 KLIX 161505
RWRLIX
NEW ORLEANS REGIONAL WEATHER ROUNDUP
NATIONAL WEATHER SERVICE NEW ORLEANS LA
1000 AM CDT WED APR 16 2014

NOTE: "FAIR" INDICATES FEW OR NO CLOUDS BELOW 12,000 FEET WITH NO
      SIGNIFICANT WEATHER AND/OR OBSTRUCTIONS TO VISIBILITY.
      SKY/WX - SKY CONDITION AND SIGNIFICANT WEATHER.
      TMP - AIR TEMPERATURE.     DP    - DEWPOINT TEMPERATURE.
      RH  - RELATIVE HUMIDITY.   PRES  - PRESSURE.
      HI  - HEAT INDEX.          WCI   - WIND CHILL INDEX.

*  THESE STATIONS ARE NOT NWS OR FAA STATIONS AND ARE NOT UNDER
   NWS QUALITY CONTROL.

LAZ038-040-048-061>063-065>067-069-161600-
SOUTHEAST LOUISIANA

CITY           SKY/WX    TMP DP  RH WIND       PRES   REMARKS
N.O. AUDUBON   NOT AVBL
N.O. INTL ARPT MOSUNNY   54  38  54 E9        30.24S
N.O. LAKEFRONT   N/A     54  40  59 E10       30.26R
N.O. DOWNTOWN*   N/A     55  36  47 E3        30.25S
SLIDELL        SUNNY     52  31  44 NE8       30.26R
BATON ROUGE    SUNNY     52  31  44 E13       30.27R
BOOTHVILLE     PTSUNNY   56  43  61 NE12      30.23R
BELLE CHASSE   MOSUNNY   56  37  49 E13       30.24R
BOGALUSA*        N/A     51  29  42 E7        30.28S
GALLIANO*      PTSUNNY   59  43  56 N8G16     30.22S
NEW ROADS*       N/A     51  30  45 E9        30.27S
GONZALES*        N/A     52  39  62 NE3       30.25S
HAMMOND*       SUNNY     54  30  40 E6        30.28S
HOUMA*         SUNNY     55  39  54 NE9       30.23S
PORT FOURCHON* MOSUNNY   59  41  51 E12G17    30.23R

$$

MSZ070-080>082-161600-
SOUTHERN MISSISSIPPI

CITY           SKY/WX    TMP DP  RH WIND       PRES   REMARKS
MCCOMB         SUNNY     49  29  46 E8        30.27R
GULFPORT       SUNNY     51  32  48 VRB5      30.25R
BILOXI         SUNNY     45  34  65 E10       30.24S
PASCAGOULA     SUNNY     51  30  44 NE12      30.24R
STENNIS ARPT*  SUNNY     52  30  43 E9        30.26

$$

COASTAL OBSERVATIONS
LAKE AND NEARSHORE STATIONS

STATION/POSITION TIME  TEMP    WIND        PRES    WAVE
                       AIR SEA DIR/SP/G            HT/PER
                 (UTC) (F)     (DEG/KT/KT) (MB)    (FT/S)
PASCAGOULA       1500   51      80/ 12/ 16 1023.4
WAVELAND YACHT   1500   49 61   80/  9/ 11 1023.4
GRAND ISLE       1500   58 66  100/  9/ 14 1023.4
SOUTHWEST PASS   1500   61 57   60/ 12/ 14 1023.0
NEW CANAL        1500   52 61   60/ 13/ 15 1024.4
SHELL BEACH      1500   53 58   80/ 13/ 17 1023.4

OFFSHORE STATIONS

STATION/POSITION TIME  TEMP    WIND        PRES    WAVE
                       AIR SEA DIR/SP/G            HT/PER
                 (UTC) (F)     (DEG/KT/KT) (MB)    (FT/S)
64 S DAUPHIN ISL 1402   56 69   60/ 14/ 19 1022.8

$$




USA.gov is the U.S. government's official web portal to all federal, state and local government web resources and services.